Year,Month,Day,Hour,Minute,Value (Times are PST for temperature in C)
2008,01,22,00,00,-2.00
2008,01,22,00,01,-1.90
2008,01,22,00,02,-1.90
2008,01,22,00,03,-1.90
2008,01,22,00,04,-1.90
2008,01,22,00,05,-1.90
2008,01,22,00,06,-1.90
2008,01,22,00,07,-2.00
2008,01,22,00,08,-2.00
2008,01,22,00,09,-2.10
2008,01,22,00,10,-2.10
2008,01,22,00,11,-2.10
2008,01,22,00,12,-2.10
2008,01,22,00,13,-2.10
2008,01,22,00,14,-2.10
2008,01,22,00,15,-2.20
2008,01,22,00,16,-2.20
2008,01,22,00,17,-2.20
2008,01,22,00,18,-2.20
2008,01,22,00,19,-2.20
2008,01,22,00,20,-2.20
2008,01,22,00,21,-2.10
2008,01,22,00,22,-2.10
2008,01,22,00,23,-2.10
2008,01,22,00,24,-2.10
2008,01,22,00,25,-2.10
2008,01,22,00,26,-2.10
2008,01,22,00,27,-2.10
2008,01,22,00,28,-2.10
2008,01,22,00,29,-2.10
2008,01,22,00,30,-2.20
2008,01,22,00,31,-2.20
2008,01,22,00,32,-2.20
2008,01,22,00,33,-2.30
2008,01,22,00,34,-2.30
2008,01,22,00,35,-2.30
2008,01,22,00,36,-2.40
2008,01,22,00,37,-2.40
2008,01,22,00,38,-2.40
2008,01,22,00,39,-2.50
2008,01,22,00,40,-2.50
2008,01,22,00,41,-2.60
2008,01,22,00,42,-2.60
2008,01,22,00,43,-2.60
2008,01,22,00,44,-2.60
2008,01,22,00,45,-2.70
2008,01,22,00,46,-2.70
2008,01,22,00,47,-2.70
2008,01,22,00,48,-2.70
2008,01,22,00,49,-2.70
2008,01,22,00,50,-2.70
2008,01,22,00,51,-2.60
2008,01,22,00,52,-2.60
2008,01,22,00,53,-2.60
2008,01,22,00,54,-2.60
2008,01,22,00,55,-2.50
2008,01,22,00,56,-2.40
2008,01,22,00,57,-2.40
2008,01,22,00,58,-2.30
2008,01,22,00,59,-2.30
2008,01,22,01,00,-2.30
2008,01,22,01,01,-2.30
2008,01,22,01,02,-2.30
2008,01,22,01,03,-2.30
2008,01,22,01,04,-2.30
2008,01,22,01,05,-2.30
2008,01,22,01,06,-2.30
2008,01,22,01,07,-2.30
2008,01,22,01,08,-2.30
2008,01,22,01,09,-2.30
2008,01,22,01,10,-2.30
2008,01,22,01,11,-2.30
2008,01,22,01,12,-2.30
2008,01,22,01,13,-2.30
2008,01,22,01,14,-2.30
2008,01,22,01,15,-2.30
2008,01,22,01,16,-2.30
2008,01,22,01,17,-2.30
2008,01,22,01,18,-2.20
2008,01,22,01,19,-2.20
2008,01,22,01,20,-2.20
2008,01,22,01,21,-2.20
2008,01,22,01,22,-2.20
2008,01,22,01,23,-2.20
2008,01,22,01,24,-2.20
2008,01,22,01,25,-2.20
2008,01,22,01,26,-2.20
2008,01,22,01,27,-2.20
2008,01,22,01,28,-2.20
2008,01,22,01,29,-2.30
2008,01,22,01,30,-2.30
2008,01,22,01,31,-2.20
2008,01,22,01,32,-2.20
2008,01,22,01,33,-2.20
2008,01,22,01,34,-2.20
2008,01,22,01,35,-2.30
2008,01,22,01,36,-2.30
2008,01,22,01,37,-2.30
2008,01,22,01,38,-2.30
2008,01,22,01,39,-2.30
2008,01,22,01,40,-2.40
2008,01,22,01,41,-2.40
2008,01,22,01,42,-2.40
2008,01,22,01,43,-2.40
2008,01,22,01,44,-2.50
2008,01,22,01,45,-2.50
2008,01,22,01,46,-2.50
2008,01,22,01,47,-2.50
2008,01,22,01,48,-2.60
2008,01,22,01,49,-2.60
2008,01,22,01,50,-2.60
2008,01,22,01,51,-2.60
2008,01,22,01,52,-2.60
2008,01,22,01,53,-2.70
2008,01,22,01,54,-2.70
2008,01,22,01,55,-2.70
2008,01,22,01,56,-2.70
2008,01,22,01,57,-2.70
2008,01,22,01,58,-2.70
2008,01,22,01,59,-2.70
2008,01,22,02,00,-2.70
2008,01,22,02,01,-2.70
2008,01,22,02,02,-2.80
2008,01,22,02,03,-2.80
2008,01,22,02,04,-2.80
2008,01,22,02,05,-2.80
2008,01,22,02,06,-2.80
2008,01,22,02,07,-2.80
2008,01,22,02,08,-2.80
2008,01,22,02,09,-2.80
2008,01,22,02,10,-2.80
2008,01,22,02,11,-2.80
2008,01,22,02,12,-2.80
2008,01,22,02,13,-2.80
2008,01,22,02,14,-2.80
2008,01,22,02,15,-2.80
2008,01,22,02,16,-2.80
2008,01,22,02,17,-2.80
2008,01,22,02,18,-2.80
2008,01,22,02,19,-2.80
2008,01,22,02,20,-2.90
2008,01,22,02,21,-2.90
2008,01,22,02,22,-3.00
2008,01,22,02,23,-3.00
2008,01,22,02,24,-3.10
2008,01,22,02,25,-3.10
2008,01,22,02,26,-3.10
2008,01,22,02,27,-3.10
2008,01,22,02,28,-3.10
2008,01,22,02,29,-3.10
2008,01,22,02,30,-3.10
2008,01,22,02,31,-3.10
2008,01,22,02,32,-3.10
2008,01,22,02,33,-3.10
2008,01,22,02,34,-3.10
2008,01,22,02,35,-3.10
2008,01,22,02,36,-3.10
2008,01,22,02,37,-3.10
2008,01,22,02,38,-3.10
2008,01,22,02,39,-3.10
2008,01,22,02,40,-3.10
2008,01,22,02,41,-3.00
2008,01,22,02,42,-3.00
2008,01,22,02,43,-2.90
2008,01,22,02,44,-2.90
2008,01,22,02,45,-2.90
2008,01,22,02,46,-2.90
2008,01,22,02,47,-2.80
2008,01,22,02,48,-2.80
2008,01,22,02,49,-2.80
2008,01,22,02,50,-2.80
2008,01,22,02,51,-2.80
2008,01,22,02,52,-2.80
2008,01,22,02,53,-2.80
2008,01,22,02,54,-2.80
2008,01,22,02,55,-2.70
2008,01,22,02,56,-2.70
2008,01,22,02,57,-2.80
2008,01,22,02,58,-2.80
2008,01,22,02,59,-2.90
2008,01,22,03,00,-2.90
2008,01,22,03,01,-2.90
2008,01,22,03,02,-3.00
2008,01,22,03,03,-3.00
2008,01,22,03,04,-3.00
2008,01,22,03,05,-3.10
2008,01,22,03,06,-3.10
2008,01,22,03,07,-3.10
2008,01,22,03,08,-3.10
2008,01,22,03,09,-3.10
2008,01,22,03,10,-3.10
2008,01,22,03,11,-3.10
2008,01,22,03,12,-3.10
2008,01,22,03,13,-3.10
2008,01,22,03,14,-3.10
2008,01,22,03,15,-3.00
2008,01,22,03,16,-3.00
2008,01,22,03,17,-3.00
2008,01,22,03,18,-3.00
2008,01,22,03,19,-3.00
2008,01,22,03,20,-3.00
2008,01,22,03,21,-3.10
2008,01,22,03,22,-3.10
2008,01,22,03,23,-3.10
2008,01,22,03,24,-3.00
2008,01,22,03,25,-3.00
2008,01,22,03,26,-2.90
2008,01,22,03,27,-2.90
2008,01,22,03,28,-2.90
2008,01,22,03,29,-2.90
2008,01,22,03,30,-2.90
2008,01,22,03,31,-2.90
2008,01,22,03,32,-2.90
2008,01,22,03,33,-2.90
2008,01,22,03,34,-2.90
2008,01,22,03,35,-2.90
2008,01,22,03,36,-2.90
2008,01,22,03,37,-3.00
2008,01,22,03,38,-3.00
2008,01,22,03,39,-3.00
2008,01,22,03,40,-3.00
2008,01,22,03,41,-3.10
2008,01,22,03,42,-3.10
2008,01,22,03,43,-3.00
2008,01,22,03,44,-3.00
2008,01,22,03,45,-2.90
2008,01,22,03,46,-2.90
2008,01,22,03,47,-2.80
2008,01,22,03,48,-2.80
2008,01,22,03,49,-2.80
2008,01,22,03,50,-2.80
2008,01,22,03,51,-2.80
2008,01,22,03,52,-2.90
2008,01,22,03,53,-2.90
2008,01,22,03,54,-2.90
2008,01,22,03,55,-2.90
2008,01,22,03,56,-2.90
2008,01,22,03,57,-2.90
2008,01,22,03,58,-3.00
2008,01,22,03,59,-3.00
2008,01,22,04,00,-2.90
2008,01,22,04,01,-2.90
2008,01,22,04,02,-2.90
2008,01,22,04,03,-2.90
2008,01,22,04,04,-2.90
2008,01,22,04,05,-2.90
2008,01,22,04,06,-2.90
2008,01,22,04,07,-2.90
2008,01,22,04,08,-2.90
2008,01,22,04,09,-2.90
2008,01,22,04,10,-3.00
2008,01,22,04,11,-3.00
2008,01,22,04,12,-3.00
2008,01,22,04,13,-3.00
2008,01,22,04,14,-3.10
2008,01,22,04,15,-3.10
2008,01,22,04,16,-3.10
2008,01,22,04,17,-3.10
2008,01,22,04,18,-3.10
2008,01,22,04,19,-3.10
2008,01,22,04,20,-3.00
2008,01,22,04,21,-3.10
2008,01,22,04,22,-3.00
2008,01,22,04,23,-3.00
2008,01,22,04,24,-3.00
2008,01,22,04,25,-3.00
2008,01,22,04,26,-2.90
2008,01,22,04,27,-2.90
2008,01,22,04,28,-2.90
2008,01,22,04,29,-2.90
2008,01,22,04,30,-2.90
2008,01,22,04,31,-2.90
2008,01,22,04,32,-2.90
2008,01,22,04,33,-2.90
2008,01,22,04,34,-2.90
2008,01,22,04,35,-2.90
2008,01,22,04,36,-2.90
2008,01,22,04,37,-2.80
2008,01,22,04,38,-2.80
2008,01,22,04,39,-2.90
2008,01,22,04,40,-2.90
2008,01,22,04,41,-2.90
2008,01,22,04,42,-2.90
2008,01,22,04,43,-2.90
2008,01,22,04,44,-2.90
2008,01,22,04,45,-2.90
2008,01,22,04,46,-2.90
2008,01,22,04,47,-2.90
2008,01,22,04,48,-2.90
2008,01,22,04,49,-2.90
2008,01,22,04,50,-2.90
2008,01,22,04,51,-2.90
2008,01,22,04,52,-2.90
2008,01,22,04,53,-2.90
2008,01,22,04,54,-2.90
2008,01,22,04,55,-2.90
2008,01,22,04,56,-2.90
2008,01,22,04,57,-3.00
2008,01,22,04,58,-3.00
2008,01,22,04,59,-3.00
2008,01,22,05,00,-3.00
2008,01,22,05,01,-3.00
2008,01,22,05,02,-3.00
2008,01,22,05,03,-3.10
2008,01,22,05,04,-3.10
2008,01,22,05,05,-3.10
2008,01,22,05,06,-3.10
2008,01,22,05,07,-3.20
2008,01,22,05,08,-3.20
2008,01,22,05,09,-3.20
2008,01,22,05,10,-3.20
2008,01,22,05,11,-3.20
2008,01,22,05,12,-3.20
2008,01,22,05,13,-3.20
2008,01,22,05,14,-3.20
2008,01,22,05,15,-3.20
2008,01,22,05,16,-3.20
2008,01,22,05,17,-3.30
2008,01,22,05,18,-3.30
2008,01,22,05,19,-3.30
2008,01,22,05,20,-3.40
2008,01,22,05,21,-3.40
2008,01,22,05,22,-3.40
2008,01,22,05,23,-3.40
2008,01,22,05,24,-3.40
2008,01,22,05,25,-3.40
2008,01,22,05,26,-3.40
2008,01,22,05,27,-3.50
2008,01,22,05,28,-3.50
2008,01,22,05,29,-3.50
2008,01,22,05,30,-3.60
2008,01,22,05,31,-3.60
2008,01,22,05,32,-3.60
2008,01,22,05,33,-3.60
2008,01,22,05,34,-3.50
2008,01,22,05,35,-3.50
2008,01,22,05,36,-3.50
2008,01,22,05,37,-3.50
2008,01,22,05,38,-3.40
2008,01,22,05,39,-3.40
2008,01,22,05,40,-3.40
2008,01,22,05,41,-3.40
2008,01,22,05,42,-3.40
2008,01,22,05,43,-3.40
2008,01,22,05,44,-3.40
2008,01,22,05,45,-3.40
2008,01,22,05,46,-3.40
2008,01,22,05,47,-3.40
2008,01,22,05,48,-3.50
2008,01,22,05,49,-3.50
2008,01,22,05,50,-3.50
2008,01,22,05,51,-3.50
2008,01,22,05,52,-3.50
2008,01,22,05,53,-3.60
2008,01,22,05,54,-3.60
2008,01,22,05,55,-3.60
2008,01,22,05,56,-3.60
2008,01,22,05,57,-3.60
2008,01,22,05,58,-3.60
2008,01,22,05,59,-3.50
2008,01,22,06,00,-3.60
2008,01,22,06,01,-3.60
2008,01,22,06,02,-3.60
2008,01,22,06,03,-3.60
2008,01,22,06,04,-3.60
2008,01,22,06,05,-3.60
2008,01,22,06,06,-3.60
2008,01,22,06,07,-3.60
2008,01,22,06,08,-3.60
2008,01,22,06,09,-3.60
2008,01,22,06,10,-3.60
2008,01,22,06,11,-3.60
2008,01,22,06,12,-3.60
2008,01,22,06,13,-3.60
2008,01,22,06,14,-3.60
2008,01,22,06,15,-3.60
2008,01,22,06,16,-3.60
2008,01,22,06,17,-3.60
2008,01,22,06,18,-3.60
2008,01,22,06,19,-3.60
2008,01,22,06,20,-3.60
2008,01,22,06,21,-3.60
2008,01,22,06,22,-3.60
2008,01,22,06,23,-3.60
2008,01,22,06,24,-3.60
2008,01,22,06,25,-3.50
2008,01,22,06,26,-3.50
2008,01,22,06,27,-3.40
2008,01,22,06,28,-3.30
2008,01,22,06,29,-3.30
2008,01,22,06,30,-3.20
2008,01,22,06,31,-3.20
2008,01,22,06,32,-3.10
2008,01,22,06,33,-3.10
2008,01,22,06,34,-3.00
2008,01,22,06,35,-3.00
2008,01,22,06,36,-2.90
2008,01,22,06,37,-2.80
2008,01,22,06,38,-2.80
2008,01,22,06,39,-2.80
2008,01,22,06,40,-2.80
2008,01,22,06,41,-2.80
2008,01,22,06,42,-2.80
2008,01,22,06,43,-2.90
2008,01,22,06,44,-2.90
2008,01,22,06,45,-3.00
2008,01,22,06,46,-3.00
2008,01,22,06,47,-3.10
2008,01,22,06,48,-3.20
2008,01,22,06,49,-3.20
2008,01,22,06,50,-3.30
2008,01,22,06,51,-3.40
2008,01,22,06,52,-3.50
2008,01,22,06,53,-3.60
2008,01,22,06,54,-3.60
2008,01,22,06,55,-3.70
2008,01,22,06,56,-3.70
2008,01,22,06,57,-3.70
2008,01,22,06,58,-3.80
2008,01,22,06,59,-3.80
2008,01,22,07,00,-3.80
2008,01,22,07,01,-3.80
2008,01,22,07,02,-3.80
2008,01,22,07,03,-3.80
2008,01,22,07,04,-3.80
2008,01,22,07,05,-3.80
2008,01,22,07,06,-3.80
2008,01,22,07,07,-3.80
2008,01,22,07,08,-3.90
2008,01,22,07,09,-3.90
2008,01,22,07,10,-3.90
2008,01,22,07,11,-3.90
2008,01,22,07,12,-3.90
2008,01,22,07,13,-3.90
2008,01,22,07,14,-3.90
2008,01,22,07,15,-3.90
2008,01,22,07,16,-3.90
2008,01,22,07,17,-3.90
2008,01,22,07,18,-3.90
2008,01,22,07,19,-3.90
2008,01,22,07,20,-3.90
2008,01,22,07,21,-3.90
2008,01,22,07,22,-3.90
2008,01,22,07,23,-3.90
2008,01,22,07,24,-3.90
2008,01,22,07,25,-3.80
2008,01,22,07,26,-3.80
2008,01,22,07,27,-3.70
2008,01,22,07,28,-3.70
2008,01,22,07,29,-3.70
2008,01,22,07,30,-3.70
2008,01,22,07,31,-3.70
2008,01,22,07,32,-3.70
2008,01,22,07,33,-3.70
2008,01,22,07,34,-3.70
2008,01,22,07,35,-3.60
2008,01,22,07,36,-3.60
2008,01,22,07,37,-3.70
2008,01,22,07,38,-3.70
2008,01,22,07,39,-3.70
2008,01,22,07,40,-3.60
2008,01,22,07,41,-3.60
2008,01,22,07,42,-3.60
2008,01,22,07,43,-3.60
2008,01,22,07,44,-3.60
2008,01,22,07,45,-3.70
2008,01,22,07,46,-3.70
2008,01,22,07,47,-3.70
2008,01,22,07,48,-3.70
2008,01,22,07,49,-3.70
2008,01,22,07,50,-3.80
2008,01,22,07,51,-3.80
2008,01,22,07,52,-3.80
2008,01,22,07,53,-3.80
2008,01,22,07,54,-3.90
2008,01,22,07,55,-3.90
2008,01,22,07,56,-3.90
2008,01,22,07,57,-3.90
2008,01,22,07,58,-3.90
2008,01,22,07,59,-3.90
2008,01,22,08,00,-3.80
2008,01,22,08,01,-3.80
2008,01,22,08,02,-3.80
2008,01,22,08,03,-3.80
2008,01,22,08,04,-3.80
2008,01,22,08,05,-3.80
2008,01,22,08,06,-3.80
2008,01,22,08,07,-3.80
2008,01,22,08,08,-3.80
2008,01,22,08,09,-3.90
2008,01,22,08,10,-3.90
2008,01,22,08,11,-3.90
2008,01,22,08,12,-3.90
2008,01,22,08,13,-3.80
2008,01,22,08,14,-3.80
2008,01,22,08,15,-3.80
2008,01,22,08,16,-3.90
2008,01,22,08,17,-3.90
2008,01,22,08,18,-3.90
2008,01,22,08,19,-3.90
2008,01,22,08,20,-3.90
2008,01,22,08,21,-3.90
2008,01,22,08,22,-3.90
2008,01,22,08,23,-3.90
2008,01,22,08,24,-3.80
2008,01,22,08,25,-3.80
2008,01,22,08,26,-3.80
2008,01,22,08,27,-3.80
2008,01,22,08,28,-3.80
2008,01,22,08,29,-3.80
2008,01,22,08,30,-3.80
2008,01,22,08,31,-3.80
2008,01,22,08,32,-3.70
2008,01,22,08,33,-3.70
2008,01,22,08,34,-3.70
2008,01,22,08,35,-3.70
2008,01,22,08,36,-3.70
2008,01,22,08,37,-3.70
2008,01,22,08,38,-3.70
2008,01,22,08,39,-3.80
2008,01,22,08,40,-3.70
2008,01,22,08,41,-3.70
2008,01,22,08,42,-3.70
2008,01,22,08,43,-3.70
2008,01,22,08,44,-3.70
2008,01,22,08,45,-3.60
2008,01,22,08,46,-3.60
2008,01,22,08,47,-3.50
2008,01,22,08,48,-3.40
2008,01,22,08,49,-3.40
2008,01,22,08,50,-3.30
2008,01,22,08,51,-3.30
2008,01,22,08,52,-3.30
2008,01,22,08,53,-3.30
2008,01,22,08,54,-3.20
2008,01,22,08,55,-3.20
2008,01,22,08,56,-3.20
2008,01,22,08,57,-3.20
2008,01,22,08,58,-3.20
2008,01,22,08,59,-3.20
2008,01,22,09,00,-3.10
2008,01,22,09,01,-3.10
2008,01,22,09,02,-3.00
2008,01,22,09,03,-2.90
2008,01,22,09,04,-2.90
2008,01,22,09,05,-2.80
2008,01,22,09,06,-2.70
2008,01,22,09,07,-2.60
2008,01,22,09,08,-2.50
2008,01,22,09,09,-2.40
2008,01,22,09,10,-2.30
2008,01,22,09,11,-2.20
2008,01,22,09,12,-2.00
2008,01,22,09,13,-1.90
2008,01,22,09,14,-1.80
2008,01,22,09,15,-1.80
2008,01,22,09,16,-1.70
2008,01,22,09,17,-1.60
2008,01,22,09,18,-1.50
2008,01,22,09,19,-1.50
2008,01,22,09,20,-1.40
2008,01,22,09,21,-1.30
2008,01,22,09,22,-1.20
2008,01,22,09,23,-1.20
2008,01,22,09,24,-1.10
2008,01,22,09,25,-1.00
2008,01,22,09,26,-1.00
2008,01,22,09,27,-0.90
2008,01,22,09,28,-0.80
2008,01,22,09,29,-0.80
2008,01,22,09,30,-0.70
2008,01,22,09,31,-0.70
2008,01,22,09,32,-0.60
2008,01,22,09,33,-0.50
2008,01,22,09,34,-0.40
2008,01,22,09,35,-0.30
2008,01,22,09,36,-0.30
2008,01,22,09,37,-0.20
2008,01,22,09,38,-0.20
2008,01,22,09,39,-0.10
2008,01,22,09,40,-0.10
2008,01,22,09,41,0.00
2008,01,22,09,42,0.10
2008,01,22,09,43,0.10
2008,01,22,09,44,0.20
2008,01,22,09,45,0.30
2008,01,22,09,46,0.30
2008,01,22,09,47,0.40
2008,01,22,09,48,0.40
2008,01,22,09,49,0.50
2008,01,22,09,50,0.50
2008,01,22,09,51,0.60
2008,01,22,09,52,0.70
2008,01,22,09,53,0.70
2008,01,22,09,54,0.80
2008,01,22,09,55,0.90
2008,01,22,09,56,0.90
2008,01,22,09,57,1.00
2008,01,22,09,58,1.10
2008,01,22,09,59,1.10
2008,01,22,10,00,1.20
2008,01,22,10,01,1.30
2008,01,22,10,02,1.30
2008,01,22,10,03,1.30
2008,01,22,10,04,1.30
2008,01,22,10,05,1.30
2008,01,22,10,06,1.40
2008,01,22,10,07,1.50
2008,01,22,10,08,1.50
2008,01,22,10,09,1.60
2008,01,22,10,10,1.60
2008,01,22,10,11,1.60
2008,01,22,10,12,1.70
2008,01,22,10,13,1.70
2008,01,22,10,14,1.70
2008,01,22,10,15,1.80
2008,01,22,10,16,1.80
2008,01,22,10,17,1.80
2008,01,22,10,18,1.80
2008,01,22,10,19,1.80
2008,01,22,10,20,1.90
2008,01,22,10,21,1.90
2008,01,22,10,22,1.90
2008,01,22,10,23,1.90
2008,01,22,10,24,2.00
2008,01,22,10,25,2.00
2008,01,22,10,26,2.00
2008,01,22,10,27,2.10
2008,01,22,10,28,2.10
2008,01,22,10,29,2.10
2008,01,22,10,30,2.10
2008,01,22,10,31,2.20
2008,01,22,10,32,2.20
2008,01,22,10,33,2.20
2008,01,22,10,34,2.20
2008,01,22,10,35,2.20
2008,01,22,10,36,2.20
2008,01,22,10,37,2.20
2008,01,22,10,38,2.30
2008,01,22,10,39,2.20
2008,01,22,10,40,2.30
2008,01,22,10,41,2.30
2008,01,22,10,42,2.30
2008,01,22,10,43,2.30
2008,01,22,10,44,2.30
2008,01,22,10,45,2.30
2008,01,22,10,46,2.30
2008,01,22,10,47,2.30
2008,01,22,10,48,2.40
2008,01,22,10,49,2.40
2008,01,22,10,50,2.40
2008,01,22,10,51,2.40
2008,01,22,10,52,2.50
2008,01,22,10,53,2.40
2008,01,22,10,54,2.40
2008,01,22,10,55,2.40
2008,01,22,10,56,2.40
2008,01,22,10,57,2.40
2008,01,22,10,58,2.40
2008,01,22,10,59,2.40
2008,01,22,11,00,2.40
2008,01,22,11,01,2.40
2008,01,22,11,02,2.40
2008,01,22,11,03,2.40
2008,01,22,11,04,2.50
2008,01,22,11,05,2.50
2008,01,22,11,06,2.50
2008,01,22,11,07,2.50
2008,01,22,11,08,2.50
2008,01,22,11,09,2.50
2008,01,22,11,10,2.50
2008,01,22,11,11,2.50
2008,01,22,11,12,2.60
2008,01,22,11,13,2.60
2008,01,22,11,14,2.60
2008,01,22,11,15,2.60
2008,01,22,11,16,2.60
2008,01,22,11,17,2.60
2008,01,22,11,18,2.50
2008,01,22,11,19,2.50
2008,01,22,11,20,2.50
2008,01,22,11,21,2.60
2008,01,22,11,22,2.60
2008,01,22,11,23,2.60
2008,01,22,11,24,2.60
2008,01,22,11,25,2.60
2008,01,22,11,26,2.60
2008,01,22,11,27,2.60
2008,01,22,11,28,2.60
2008,01,22,11,29,2.60
2008,01,22,11,30,2.70
2008,01,22,11,31,2.70
2008,01,22,11,32,2.60
2008,01,22,11,33,2.60
2008,01,22,11,34,2.60
2008,01,22,11,35,2.70
2008,01,22,11,36,2.60
2008,01,22,11,37,2.60
2008,01,22,11,38,2.60
2008,01,22,11,39,2.70
2008,01,22,11,40,2.70
2008,01,22,11,41,2.80
2008,01,22,11,42,2.80
2008,01,22,11,43,2.80
2008,01,22,11,44,2.80
2008,01,22,11,45,2.80
2008,01,22,11,46,2.80
2008,01,22,11,47,2.70
2008,01,22,11,48,2.70
2008,01,22,11,49,2.70
2008,01,22,11,50,2.80
2008,01,22,11,51,2.80
2008,01,22,11,52,2.80
2008,01,22,11,53,2.80
2008,01,22,11,54,2.90
2008,01,22,11,55,2.90
2008,01,22,11,56,2.90
2008,01,22,11,57,2.80
2008,01,22,11,58,2.80
2008,01,22,11,59,2.80
2008,01,22,12,00,2.80
2008,01,22,12,01,2.80
2008,01,22,12,02,2.80
2008,01,22,12,03,2.80
2008,01,22,12,04,2.80
2008,01,22,12,05,2.90
2008,01,22,12,06,2.90
2008,01,22,12,07,2.90
2008,01,22,12,08,2.90
2008,01,22,12,09,2.90
2008,01,22,12,10,2.90
2008,01,22,12,11,2.90
2008,01,22,12,12,2.90
2008,01,22,12,13,2.90
2008,01,22,12,14,3.00
2008,01,22,12,15,3.00
2008,01,22,12,16,3.00
2008,01,22,12,17,3.10
2008,01,22,12,18,3.10
2008,01,22,12,19,3.10
2008,01,22,12,20,3.10
2008,01,22,12,21,3.10
2008,01,22,12,22,3.10
2008,01,22,12,23,3.10
2008,01,22,12,24,3.10
2008,01,22,12,25,3.10
2008,01,22,12,26,3.20
2008,01,22,12,27,3.20
2008,01,22,12,28,3.30
2008,01,22,12,29,3.30
2008,01,22,12,30,3.30
2008,01,22,12,31,3.30
2008,01,22,12,32,3.20
2008,01,22,12,33,3.20
2008,01,22,12,34,3.30
2008,01,22,12,35,3.30
2008,01,22,12,36,3.40
2008,01,22,12,37,3.40
2008,01,22,12,38,3.30
2008,01,22,12,39,3.30
2008,01,22,12,40,3.40
2008,01,22,12,41,3.40
2008,01,22,12,42,3.30
2008,01,22,12,43,3.30
2008,01,22,12,44,3.20
2008,01,22,12,45,3.20
2008,01,22,12,46,3.20
2008,01,22,12,47,3.20
2008,01,22,12,48,3.10
2008,01,22,12,49,3.10
2008,01,22,12,50,3.20
2008,01,22,12,51,3.20
2008,01,22,12,52,3.10
2008,01,22,12,53,3.10
2008,01,22,12,54,3.20
2008,01,22,12,55,3.20
2008,01,22,12,56,3.20
2008,01,22,12,57,3.20
2008,01,22,12,58,3.20
2008,01,22,12,59,3.30
2008,01,22,13,00,3.30
2008,01,22,13,01,3.20
2008,01,22,13,02,3.20
2008,01,22,13,03,3.20
2008,01,22,13,04,3.30
2008,01,22,13,05,3.30
2008,01,22,13,06,3.30
2008,01,22,13,07,3.30
2008,01,22,13,08,3.30
2008,01,22,13,09,3.20
2008,01,22,13,10,3.20
2008,01,22,13,11,3.20
2008,01,22,13,12,3.20
2008,01,22,13,13,3.20
2008,01,22,13,14,3.20
2008,01,22,13,15,3.20
2008,01,22,13,16,3.20
2008,01,22,13,17,3.30
2008,01,22,13,18,3.30
2008,01,22,13,19,3.20
2008,01,22,13,20,3.20
2008,01,22,13,21,3.20
2008,01,22,13,22,3.30
2008,01,22,13,23,3.30
2008,01,22,13,24,3.30
2008,01,22,13,25,3.30
2008,01,22,13,26,3.30
2008,01,22,13,27,3.40
2008,01,22,13,28,3.40
2008,01,22,13,29,3.40
2008,01,22,13,30,3.50
2008,01,22,13,31,3.50
2008,01,22,13,32,3.40
2008,01,22,13,33,3.40
2008,01,22,13,34,3.40
2008,01,22,13,35,3.40
2008,01,22,13,36,3.40
2008,01,22,13,37,3.50
2008,01,22,13,38,3.50
2008,01,22,13,39,3.50
2008,01,22,13,40,3.50
2008,01,22,13,41,3.40
2008,01,22,13,42,3.40
2008,01,22,13,43,3.30
2008,01,22,13,44,3.30
2008,01,22,13,45,3.30
2008,01,22,13,46,3.30
2008,01,22,13,47,3.40
2008,01,22,13,48,3.40
2008,01,22,13,49,3.40
2008,01,22,13,50,3.40
2008,01,22,13,51,3.40
2008,01,22,13,52,3.40
2008,01,22,13,53,3.30
2008,01,22,13,54,3.30
2008,01,22,13,55,3.30
2008,01,22,13,56,3.30
2008,01,22,13,57,3.30
2008,01,22,13,58,3.30
2008,01,22,13,59,3.40
2008,01,22,14,00,3.40
2008,01,22,14,01,3.40
2008,01,22,14,02,3.50
2008,01,22,14,03,3.50
2008,01,22,14,04,3.60
2008,01,22,14,05,3.70
2008,01,22,14,06,3.70
2008,01,22,14,07,3.60
2008,01,22,14,08,3.60
2008,01,22,14,09,3.60
2008,01,22,14,10,3.60
2008,01,22,14,11,3.60
2008,01,22,14,12,3.50
2008,01,22,14,13,3.50
2008,01,22,14,14,3.40
2008,01,22,14,15,3.40
2008,01,22,14,16,3.50
2008,01,22,14,17,3.40
2008,01,22,14,18,3.40
2008,01,22,14,19,3.40
2008,01,22,14,20,3.40
2008,01,22,14,21,3.50
2008,01,22,14,22,3.50
2008,01,22,14,23,3.50
2008,01,22,14,24,3.50
2008,01,22,14,25,3.40
2008,01,22,14,26,3.50
2008,01,22,14,27,3.60
2008,01,22,14,28,3.50
2008,01,22,14,29,3.50
2008,01,22,14,30,3.50
2008,01,22,14,31,3.50
2008,01,22,14,32,3.60
2008,01,22,14,33,3.60
2008,01,22,14,34,3.60
2008,01,22,14,35,3.70
2008,01,22,14,36,3.60
2008,01,22,14,37,3.60
2008,01,22,14,38,3.50
2008,01,22,14,39,3.50
2008,01,22,14,40,3.50
2008,01,22,14,41,3.50
2008,01,22,14,42,3.50
2008,01,22,14,43,3.50
2008,01,22,14,44,3.50
2008,01,22,14,45,3.60
2008,01,22,14,46,3.60
2008,01,22,14,47,3.70
2008,01,22,14,48,3.70
2008,01,22,14,49,3.60
2008,01,22,14,50,3.60
2008,01,22,14,51,3.60
2008,01,22,14,52,3.60
2008,01,22,14,53,3.60
2008,01,22,14,54,3.60
2008,01,22,14,55,3.50
2008,01,22,14,56,3.50
2008,01,22,14,57,3.50
2008,01,22,14,58,3.60
2008,01,22,14,59,3.70
2008,01,22,15,00,3.60
2008,01,22,15,01,3.50
2008,01,22,15,02,3.50
2008,01,22,15,03,3.50
2008,01,22,15,04,3.50
2008,01,22,15,05,3.50
2008,01,22,15,06,3.50
2008,01,22,15,07,3.50
2008,01,22,15,08,3.50
2008,01,22,15,09,3.50
2008,01,22,15,10,3.50
2008,01,22,15,11,3.60
2008,01,22,15,12,3.60
2008,01,22,15,13,3.70
2008,01,22,15,14,3.80
2008,01,22,15,15,3.80
2008,01,22,15,16,3.90
2008,01,22,15,17,3.80
2008,01,22,15,18,3.80
2008,01,22,15,19,3.80
2008,01,22,15,20,3.90
2008,01,22,15,21,3.90
2008,01,22,15,22,3.80
2008,01,22,15,23,3.70
2008,01,22,15,24,3.70
2008,01,22,15,25,3.70
2008,01,22,15,26,3.70
2008,01,22,15,27,3.70
2008,01,22,15,28,3.70
2008,01,22,15,29,3.80
2008,01,22,15,30,3.80
2008,01,22,15,31,3.80
2008,01,22,15,32,3.80
2008,01,22,15,33,3.80
2008,01,22,15,34,3.80
2008,01,22,15,35,3.80
2008,01,22,15,36,3.80
2008,01,22,15,37,3.80
2008,01,22,15,38,3.80
2008,01,22,15,39,3.80
2008,01,22,15,40,3.80
2008,01,22,15,41,3.80
2008,01,22,15,42,3.80
2008,01,22,15,43,3.80
2008,01,22,15,44,3.80
2008,01,22,15,45,3.70
2008,01,22,15,46,3.70
2008,01,22,15,47,3.70
2008,01,22,15,48,3.70
2008,01,22,15,49,3.70
2008,01,22,15,50,3.70
2008,01,22,15,51,3.70
2008,01,22,15,52,3.70
2008,01,22,15,53,3.70
2008,01,22,15,54,3.70
2008,01,22,15,55,3.70
2008,01,22,15,56,3.70
2008,01,22,15,57,3.70
2008,01,22,15,58,3.60
2008,01,22,15,59,3.60
2008,01,22,16,00,3.60
2008,01,22,16,01,3.50
2008,01,22,16,02,3.50
2008,01,22,16,03,3.50
2008,01,22,16,04,3.50
2008,01,22,16,05,3.50
2008,01,22,16,06,3.50
2008,01,22,16,07,3.50
2008,01,22,16,08,3.50
2008,01,22,16,09,3.50
2008,01,22,16,10,3.50
2008,01,22,16,11,3.50
2008,01,22,16,12,3.50
2008,01,22,16,13,3.40
2008,01,22,16,14,3.40
2008,01,22,16,15,3.40
2008,01,22,16,16,3.40
2008,01,22,16,17,3.40
2008,01,22,16,18,3.40
2008,01,22,16,19,3.40
2008,01,22,16,20,3.40
2008,01,22,16,21,3.40
2008,01,22,16,22,3.30
2008,01,22,16,23,3.30
2008,01,22,16,24,3.30
2008,01,22,16,25,3.30
2008,01,22,16,26,3.30
2008,01,22,16,27,3.30
2008,01,22,16,28,3.30
2008,01,22,16,29,3.30
2008,01,22,16,30,3.30
2008,01,22,16,31,3.30
2008,01,22,16,32,3.30
2008,01,22,16,33,3.30
2008,01,22,16,34,3.30
2008,01,22,16,35,3.30
2008,01,22,16,36,3.30
2008,01,22,16,37,3.30
2008,01,22,16,38,3.20
2008,01,22,16,39,3.20
2008,01,22,16,40,3.20
2008,01,22,16,41,3.20
2008,01,22,16,42,3.20
2008,01,22,16,43,3.20
2008,01,22,16,44,3.20
2008,01,22,16,45,3.20
2008,01,22,16,46,3.20
2008,01,22,16,47,3.20
2008,01,22,16,48,3.10
2008,01,22,16,49,3.10
2008,01,22,16,50,3.10
2008,01,22,16,51,3.10
2008,01,22,16,52,3.10
2008,01,22,16,53,3.10
2008,01,22,16,54,3.10
2008,01,22,16,55,3.00
2008,01,22,16,56,3.00
2008,01,22,16,57,3.00
2008,01,22,16,58,3.00
2008,01,22,16,59,2.90
2008,01,22,17,00,2.90
2008,01,22,17,01,2.90
2008,01,22,17,02,2.80
2008,01,22,17,03,2.80
2008,01,22,17,04,2.80
2008,01,22,17,05,2.70
2008,01,22,17,06,2.70
2008,01,22,17,07,2.60
2008,01,22,17,08,2.60
2008,01,22,17,09,2.50
2008,01,22,17,10,2.40
2008,01,22,17,11,2.40
2008,01,22,17,12,2.30
2008,01,22,17,13,2.30
2008,01,22,17,14,2.20
2008,01,22,17,15,2.20
2008,01,22,17,16,2.20
2008,01,22,17,17,2.10
2008,01,22,17,18,2.10
2008,01,22,17,19,2.00
2008,01,22,17,20,2.00
2008,01,22,17,21,2.00
2008,01,22,17,22,2.00
2008,01,22,17,23,1.90
2008,01,22,17,24,1.90
2008,01,22,17,25,1.90
2008,01,22,17,26,1.90
2008,01,22,17,27,1.80
2008,01,22,17,28,1.80
2008,01,22,17,29,1.80
2008,01,22,17,30,1.70
2008,01,22,17,31,1.70
2008,01,22,17,32,1.60
2008,01,22,17,33,1.60
2008,01,22,17,34,1.50
2008,01,22,17,35,1.40
2008,01,22,17,36,1.40
2008,01,22,17,37,1.30
2008,01,22,17,38,1.30
2008,01,22,17,39,1.30
2008,01,22,17,40,1.30